Starlink 32301

operational
NORAD ID: 61664 Int'l Des: 2024-193 Owner: SPXS Country: US Constellation: starlink
LEOCIRCULAR

Starlink 32301について

説明を読み込み中...

リアルタイム位置

3D地球を読み込み中...

次回通過

高度履歴

Altitude vs Time

uPlot chart will show altitude changes over time

軌道要素

1 61664U 24193D 25259.17400343 -.00002181 00000-0 -61573-4 0 9997
2 61664 53.1588 181.8947 0001243 81.4808 278.6333 15.30177237 49801
Epoch: Sep 16, 2025 • Age: 9 hours

現在のステータス

高度 479.9 km
速度 7.63 km/s
衛星直下点 -16.44°S, 30.74°W
打ち上げ日 Oct 26, 2024
運用期間 0.8 years
タイプ internet

技術仕様

分類 Payload
質量 730.00 kg
乾燥質量 700.00 kg
総質量 730.00 kg
長さ 0.30 m
直径 4.10 m
スパン 29.00 m
形状 Box + pan
製造者 SPXS
バスタイプ Starlink V2M
フェーズステータス In Orbit
所有者/国 SPXS/US

大規模コンステレーション

Loading constellations...